| time (UTC) | temp F | wind direction | speed knots | gust knots | rain 1hr in | rain 24hr in | rain mn in | humidity % | barometer mb |
| 20260505021004 | 61 | 286 | 11.3 | 25.2 | 0.00 | 0.00 | 0.00 | 35 | 1001.4 |
| 20260505020003 | 61 | 303 | 4.3 | 17.4 | 0.00 | 0.00 | 0.00 | 37 | 1001.1 |
| 20260505015003 | 62 | 297 | 13.0 | 18.2 | 0.00 | 0.00 | 0.00 | 36 | 1000.8 |
| 20260505014003 | 63 | 299 | 7.8 | 20.9 | 0.00 | 0.00 | 0.00 | 38 | 1000.8 |
| 20260505013003 | 63 | 254 | 4.3 | 15.6 | 0.00 | 0.00 | 0.00 | 37 | 1000.5 |
| 20260505012003 | 64 | 282 | 8.7 | 25.2 | 0.00 | 0.00 | 0.00 | 35 | 1000.3 |
| 20260505011003 | 64 | 288 | 8.7 | 14.8 | 0.00 | 0.00 | 0.00 | 35 | 1000.2 |
| 20260505005004 | 65 | 290 | 8.7 | 20.0 | 0.00 | 0.00 | 0.00 | 34 | 999.9 |
| 20260505004004 | 65 | 284 | 10.4 | 20.0 | 0.00 | 0.00 | 0.00 | 34 | 1000.0 |
| 20260505003004 | 66 | 293 | 6.1 | 20.0 | 0.00 | 0.00 | 0.00 | 34 | 999.9 |
| 20260505001003 | 66 | 283 | 11.3 | 20.0 | 0.00 | 0.00 | 0.00 | 33 | 999.4 |
| 20260505000003 | 67 | 280 | 11.3 | 15.6 | 0.00 | 0.00 | 0.00 | 33 | 999.1 |
| 20260504235003 | 68 | 295 | 11.3 | 15.6 | 0.00 | 0.00 | 0.00 | 32 | 998.8 |
| 20260504234003 | 68 | 292 | 7.8 | 20.0 | 0.00 | 0.00 | 0.00 | 33 | 999.1 |
| 20260504233003 | 68 | 285 | 5.2 | 26.1 | 0.00 | 0.00 | 0.00 | 33 | 998.9 |
| 20260504231003 | 69 | 270 | 8.7 | 13.9 | 0.00 | 0.00 | 0.00 | 32 | 998.7 |
| 20260504230003 | 69 | 268 | 7.8 | 25.2 | 0.00 | 0.00 | 0.00 | 32 | 998.8 |
| 20260504225003 | 69 | 288 | 10.4 | 20.9 | 0.00 | 0.00 | 0.00 | 33 | 998.8 |
| 20260504224003 | 70 | 295 | 14.8 | 27.8 | 0.00 | 0.00 | 0.00 | 32 | 998.8 |
| 20260504223003 | 70 | 294 | 9.6 | 22.6 | 0.00 | 0.00 | 0.00 | 34 | 998.7 |
| 20260504222003 | 71 | 300 | 14.8 | 26.9 | 0.00 | 0.00 | 0.00 | 33 | 998.7 |
| 20260504221003 | 72 | 303 | 13.0 | 19.1 | 0.00 | 0.00 | 0.00 | 34 | 998.2 |
| 20260504220003 | 73 | 269 | 9.6 | 20.0 | 0.00 | 0.00 | 0.00 | 33 | 998.1 |
| 20260504215004 | 73 | 300 | 12.2 | 24.3 | 0.00 | 0.00 | 0.00 | 34 | 997.8 |
| 20260504214003 | 75 | 287 | 7.8 | 18.2 | 0.00 | 0.00 | 0.00 | 35 | 997.7 |
| 20260504213003 | 75 | 275 | 12.2 | 19.1 | 0.00 | 0.00 | 0.00 | 34 | 997.4 |
| 20260504212003 | 76 | 283 | 7.8 | 27.8 | 0.00 | 0.00 | 0.00 | 32 | 997.4 |
| 20260504211004 | 76 | 272 | 14.8 | 24.3 | 0.00 | 0.00 | 0.00 | 32 | 997.6 |
| 20260504210003 | 76 | 279 | 14.8 | 30.4 | 0.00 | 0.00 | 0.00 | 32 | 997.7 |
| 20260504205002 | 77 | 265 | 12.2 | 22.6 | 0.00 | 0.00 | 0.00 | 32 | 997.3 |
| 20260504203004 | 77 | 262 | 9.6 | 22.6 | 0.00 | 0.00 | 0.00 | 32 | 997.4 |
| 20260504202003 | 77 | 266 | 11.3 | 28.7 | 0.00 | 0.00 | 0.00 | 34 | 997.6 |
| 20260504201003 | 77 | 276 | 13.9 | 21.7 | 0.00 | 0.00 | 0.00 | 33 | 997.7 |
| 20260504200003 | 77 | 241 | 4.3 | 20.0 | 0.00 | 0.00 | 0.00 | 36 | 997.6 |
| 20260504194003 | 76 | 256 | 12.2 | 19.1 | 0.00 | 0.00 | 0.00 | 34 | 997.8 |
| 20260504193003 | 76 | 260 | 10.4 | 27.8 | 0.00 | 0.00 | 0.00 | 35 | 998.0 |
| 20260504192003 | 76 | 253 | 11.3 | 20.0 | 0.00 | 0.00 | 0.00 | 35 | 998.1 |
| 20260504191003 | 77 | 279 | 9.6 | 17.4 | 0.00 | 0.00 | 0.00 | 34 | 997.9 |
| 20260504190003 | 77 | 253 | 10.4 | 19.1 | 0.00 | 0.00 | 0.00 | 34 | 998.0 |
| 20260504185003 | 76 | 242 | 10.4 | 19.1 | 0.00 | 0.00 | 0.00 | 34 | 997.9 |
| 20260504184003 | 76 | 293 | 7.8 | 20.0 | 0.00 | 0.00 | 0.00 | 35 | 998.1 |
| 20260504183003 | 76 | 256 | 11.3 | 20.0 | 0.00 | 0.00 | 0.00 | 34 | 998.0 |
| 20260504182004 | 76 | 232 | 8.7 | 19.1 | 0.00 | 0.00 | 0.00 | 35 | 998.0 |
| 20260504181003 | 75 | 259 | 8.7 | 24.3 | 0.00 | 0.00 | 0.00 | 34 | 998.1 |
| 20260504180003 | 76 | 248 | 12.2 | 25.2 | 0.00 | 0.00 | 0.00 | 34 | 997.9 |
| 20260504175003 | 76 | 218 | 12.2 | 21.7 | 0.00 | 0.00 | 0.00 | 33 | 998.2 |
| 20260504174003 | 76 | 252 | 10.4 | 20.9 | 0.00 | 0.00 | 0.00 | 33 | 998.4 |
| 20260504173003 | 75 | 230 | 17.4 | 26.9 | 0.00 | 0.00 | 0.00 | 33 | 998.3 |
| 20260504172003 | 75 | 249 | 11.3 | 28.7 | 0.00 | 0.00 | 0.00 | 34 | 998.5 |
| 20260504171003 | 75 | 221 | 9.6 | 25.2 | 0.00 | 0.00 | 0.00 | 34 | 998.6 |
| 20260504151003 | 68 | 199 | 10.4 | 20.9 | 0.00 | 0.00 | 0.00 | 41 | 1000.1 |
| 20260504141003 | 64 | 193 | 9.6 | 18.2 | 0.00 | 0.00 | 0.00 | 48 | 1001.0 |
| 20260504081004 | 49 | 158 | 2.6 | 4.3 | 0.00 | 0.00 | 0.00 | 73 | 1005.3 |
| 20260504050003 | 54 | 29 | 1.7 | 4.3 | 0.00 | 0.00 | 0.00 | 73 | 1006.8 |
| 20260504044003 | 56 | 23 | 3.5 | 7.8 | 0.00 | 0.00 | 0.00 | 66 | 1006.6 |
| 20260504043003 | 57 | 26 | 4.3 | 7.0 | 0.00 | 0.00 | 0.00 | 60 | 1006.7 |
| 20260504042003 | 57 | 36 | 3.5 | 10.4 | 0.00 | 0.00 | 0.00 | 54 | 1006.7 |
| 20260504040003 | 58 | 150 | 1.7 | 2.6 | 0.00 | 0.00 | 0.00 | 52 | 1006.3 |
| 20260504034003 | 59 | 218 | 0.9 | 2.6 | 0.00 | 0.00 | 0.00 | 50 | 1006.4 |
| 20260504033003 | 59 | 156 | 0.9 | 4.3 | 0.00 | 0.00 | 0.00 | 50 | 1006.4 |
| 20260504032003 | 60 | 242 | 0.9 | 5.2 | 0.00 | 0.00 | 0.00 | 49 | 1006.2 |
| 20260504031003 | 60 | 159 | 0.9 | 4.3 | 0.00 | 0.00 | 0.00 | 49 | 1006.5 |
| 20260504025003 | 61 | 195 | 0.9 | 4.3 | 0.00 | 0.00 | 0.00 | 49 | 1006.4 |
| 20260504024003 | 61 | 179 | 1.7 | 5.2 | 0.00 | 0.00 | 0.00 | 48 | 1006.4 |
| 20260504023003 | 62 | 186 | 1.7 | 5.2 | 0.00 | 0.00 | 0.00 | 48 | 1006.3 |